Weather History for Szeged, Hungary

Change the Weather History Date:

Tuesday, November 12, 2013

  Actual Average (LRAR) Record (LRAR)
Temperature  
Mean Temperature 46 °F -  
Max Temperature 50 °F 45 °F 66 °F (1997)
Min Temperature 43 °F 32 °F 26 °F (2003)
Degree Days  
Heating Degree Days 19    
Moisture  
Dew Point 42 °F    
Average Humidity 82    
Maximum Humidity 93    
Minimum Humidity 69    
Precipitation  
Precipitation 0.00 in 0.05 in - ()
Sea Level Pressure  
Sea Level Pressure 30.29 in    
Wind  
Wind Speed 8 mph ()    
Max Wind Speed 14 mph    
Max Gust Speed -    
Visibility 12.6 miles    
Events      
Averages and records for this station are not official NWS values.
T = Trace of Precipitation, MM = Missing Value Source: Averaged Metar Reports

Daily Weather History Graph

Daily Weather History Graph

Search for Another Location

Airport:

Trip Planner

Search our weather history database for the weather conditions in past years. The results will help you decide how hot, cold, wet, or windy it might be!

Date:

Astronomy

Nov. 12, 2013 Rise Set
Actual Time 6:36 AM CET 4:10 PM CET
Civil Twilight 6:04 AM CET 4:42 PM CET
Nautical Twilight 5:27 AM CET 5:19 PM CET
Astronomical Twilight 4:52 AM CET 5:54 PM CET
Moon 1:30 PM CET (11/12) 12:48 AM CET (11/12)
Length of Visible Light 10h 38m
Length of Day
9h 34m
Waxing Gibbous, 74% of the Moon is Illuminated
Nov 12
Waxing Gibbous
Nov 17
Full
Nov 25
Last Quarter
Dec 3
New
Dec 9
First Quarter

Hourly Weather History & Observations

Time (CET) Temp. Windchill Dew Point Humidity Pressure Visibility Wind Dir Wind Speed Gust Speed Precip Events Conditions
12:45 AM 46.4 °F 40.4 °F 39.2 °F 76% 30.24 in - NNE 13.8 mph - N/A   Clear
1:00 AM 46 °F - 39 °F 69% 30.23 in 19 mi NNE 13.4 mph - -   Partly Cloudy
1:45 AM 44.6 °F 38.4 °F 39.2 °F 81% 30.24 in - NNE 12.7 mph - N/A   Clear
2:45 AM 44.6 °F 38.1 °F 39.2 °F 81% 30.24 in - NNE 13.8 mph - N/A   Clear
3:45 AM 44.6 °F 39.7 °F 39.2 °F 81% 30.27 in - North 9.2 mph - N/A   Clear
4:45 AM 44.6 °F 39.7 °F 39.2 °F 81% 30.27 in - North 9.2 mph - N/A   Clear
5:15 AM 44.6 °F 39.2 °F 39.2 °F 81% 30.27 in 6.2 mi North 10.4 mph - N/A   Scattered Clouds
5:45 AM 44.6 °F 40.2 °F 39.2 °F 81% 30.27 in - North 8.1 mph - N/A   Clear
6:15 AM 44.6 °F 39.2 °F 39.2 °F 81% 30.30 in - North 10.4 mph - N/A   Clear
6:45 AM 44.6 °F 38.8 °F 39.2 °F 81% 30.27 in - North 11.5 mph - N/A   Clear
7:00 AM 44 °F - 38 °F 73% 30.29 in 19 mi North 11.2 mph - -   Partly Cloudy
7:15 AM 44.6 °F 39.2 °F 39.2 °F 81% 30.30 in - North 10.4 mph - N/A   Clear
7:45 AM 44.6 °F 39.7 °F 39.2 °F 81% 30.30 in - North 9.2 mph - N/A   Clear
8:15 AM 44.6 °F 39.7 °F 39.2 °F 81% 30.30 in - North 9.2 mph - N/A   Clear
8:45 AM 44.6 °F 39.2 °F 39.2 °F 81% 30.30 in - NNE 10.4 mph - N/A   Clear
9:15 AM 46.4 °F 42.9 °F 39.2 °F 76% 30.30 in 6.2 mi NNE 6.9 mph - N/A   Mostly Cloudy
9:45 AM 46.4 °F 42.9 °F 41.0 °F 81% 30.30 in - NNE 6.9 mph - N/A   Clear
10:15 AM 46.4 °F 44.3 °F 41.0 °F 81% 30.33 in - NNE 4.6 mph - N/A   Clear
10:45 AM 46.4 °F 42.9 °F 41.0 °F 81% 30.30 in - NNE 6.9 mph - N/A   Clear
11:15 AM 46.4 °F 42.9 °F 41.0 °F 81% 30.30 in - North 6.9 mph - N/A   Clear
11:45 AM 48.2 °F - 42.8 °F 82% 30.30 in - North 5.8 mph - N/A   Clear
12:15 PM 48.2 °F - 42.8 °F 82% 30.30 in - North 6.9 mph - N/A   Clear
12:45 PM 48.2 °F - 42.8 °F 82% 30.30 in - NNE 5.8 mph - N/A   Clear
1:00 PM 48 °F - 42 °F 74% 30.31 in 16 mi NNE 4.5 mph - -   Partly Cloudy
1:15 PM 50.0 °F - 42.8 °F 76% 30.30 in - NNE 6.9 mph - N/A   Clear
1:45 PM 50.0 °F - 42.8 °F 76% 30.30 in - North 6.9 mph - N/A   Clear
2:15 PM 50.0 °F - 44.6 °F 82% 30.30 in - North 4.6 mph - N/A   Clear
2:45 PM 50.0 °F - 44.6 °F 82% 30.30 in - North 6.9 mph - N/A   Clear
3:15 PM 50.0 °F - 44.6 °F 82% 30.30 in - North 5.8 mph - N/A   Clear
3:45 PM 50.0 °F - 44.6 °F 82% 30.30 in - North 4.6 mph - N/A   Clear
4:15 PM 50.0 °F - 44.6 °F 82% 30.30 in - North 4.6 mph - N/A   Clear
4:45 PM 50.0 °F - 44.6 °F 82% 30.30 in - North 2.3 mph - N/A   Clear
5:15 PM 50.0 °F - 44.6 °F 82% 30.30 in - NNW 2.3 mph - N/A   Clear
5:45 PM 50.0 °F - 44.6 °F 82% 30.30 in - North 2.3 mph - N/A   Clear
6:45 PM 48.2 °F - 44.6 °F 87% 30.30 in - Calm Calm - N/A   Clear
7:00 PM 49 °F - 45 °F 82% 30.30 in 9 mi Calm Calm - -   Partly Cloudy
7:15 PM 48.2 °F - 46.4 °F 93% 30.30 in - NNW 1.2 mph - N/A   Clear
7:45 PM 48.2 °F - 44.6 °F 87% 30.30 in - WNW 1.2 mph - N/A   Clear
8:15 PM 48.2 °F - 46.4 °F 93% 30.30 in - North 1.2 mph - N/A   Clear
8:45 PM 48.2 °F - 46.4 °F 93% 30.30 in - North 2.3 mph - N/A   Clear
9:45 PM 48.2 °F - 44.6 °F 87% 30.30 in - North 2.3 mph - N/A   Clear
10:45 PM 48.2 °F - 46.4 °F 93% 30.27 in - North 3.5 mph - N/A   Clear
11:45 PM 50.0 °F - 46.4 °F 87% 30.27 in - NNE 3.5 mph - N/A   Clear